FENGYUN 1C DEB, 31511

Orbit data source: Space-Track

FENGYUN 1C DEB, 31511 is space debris in SSO originally from a launch on Mon, 10 May 1999 UTC launched from the Taiyaun Space Center, China (TSC). Fengyun 1C debris stems from the Chinese weather satellite Fengyun-1C, which was intentionally destroyed by a Chinese anti-satellite missile in 2007. This event dramatically increased the amount of space debris, with thousands of trackable fragments posing hazards to satellites and human spaceflight. The Fengyun 1C debris cloud has become a focal point in discussions about space sustainability and the need for international regulations to prevent the creation of new debris.

Loading next visibility...
Identifier
31511, 1999-025BXA
Orbit
SSO
Country
Flag of CNCN / PRC
Related business
Manufacturer
Unknown
Mission
Spacecraft
Bus & Motor
Unknown
Mass
Unknown
Launch date (UTC)
1999-05-10 (27 years ago)
Launch vehicle
Unknown
Launch site
Taiyaun Space Center, China (TSC)
Object type
Payload
Rocket body
Debris
Shape & HBR
Unknown shape, 0.1 m
Radar Cross Section
Small (<0.1 m²)

Expand to show TLE details & history
Last TLE update: 2 days ago

TLE from 2 days ago
0 FENGYUN 1C DEB
1 31511U 99025BXA 25339.91684238  .00005590  00000-0  21300-2 0  9996
2 31511  99.0676 148.3037 0109695 246.1309 112.8345 14.27991614957033
Epoch: 2025-12-05T22:00Z
TLE epoch observation values (Epoch: 2025-12-05T22:00:15.181Z)
Latitude
-0.00003°
Longitude
103.28839°
Altitude
832.651 km
Speed
7.42 km/s
True Right ascension
09h 53m 12s
True Declination
0° 00' 00"
Sunlit
Object was in daylight at epoch
Visualization orbit readout
Latitude
Unknown
Longitude
Unknown
Altitude
Unknown
Speed
Unknown
Apparent Right ascension
Unknown
Apparent Declination
Unknown
Sunlit
N/A
Visualization observer readout
Local Sidereal Time
02:27:02
Azimuth
Unknown
Elevation
Unknown
Doppler factor
Unknown
Orbital elements
Apogee altitude
874.309 km
Perigee altitude
716.924 km
Semi-major axis
7,173.754 km
Eccentricity
0.01097
Inclination
99.0676°
RAAN
148.3037°
Arg. of periapsis
246.1309°
True anomaly
113.98679°
Mean anomaly
112.8345°
Eccentric anomaly
113.41127°
Mean motion
3.5721 °/min
Orbital period
100.78 mins
BSTAR
0.00213
Loading maneuver chart data...
Computing Atmospheric mass density...

Documentation

Showing up to 5 results
|